| time (UTC) | temp C | wind direction | speed KPH | gust KPH | rain 1hr cm | rain 24hr cm | rain mn cm | humidity % | barometer mb |
| 20260901104204 | 25 | 270 | 11.3 | 17.7 | 0.00 | 0.00 | 0.00 | 74 | 1013.9 |
| 20260901103659 | 25 | 248 | 11.3 | 17.7 | 0.00 | 0.00 | 0.00 | 74 | 1013.9 |
| 20260901103154 | 25 | 225 | 8.0 | 17.7 | 0.00 | 0.00 | 0.00 | 74 | 1013.9 |
| 20260901102650 | 25 | 270 | 6.4 | 17.7 | 0.00 | 0.00 | 0.00 | 73 | 1013.9 |
| 20260901102144 | 25 | 203 | 6.4 | 17.7 | 0.00 | 0.00 | 0.00 | 73 | 1014.2 |
| 20260901101640 | 25 | 270 | 8.0 | 17.7 | 0.00 | 0.00 | 0.00 | 73 | 1014.2 |
| 20260901101134 | 25 | 180 | 12.9 | 17.7 | 0.00 | 0.00 | 0.00 | 72 | 1014.2 |
| 20260901100629 | 25 | 203 | 14.5 | 17.7 | 0.00 | 0.00 | 0.00 | 73 | 1014.2 |
| 20260901100124 | 25 | 293 | 16.1 | 17.7 | 0.00 | 0.00 | 0.00 | 73 | 1014.2 |
| 20260901095620 | 25 | 45 | 6.4 | 16.1 | 0.00 | 0.00 | 0.00 | 74 | 1014.2 |
| 20260901095115 | 25 | 23 | 11.3 | 16.1 | 0.00 | 0.00 | 0.00 | 74 | 1014.2 |
| 20260901094610 | 25 | 270 | 11.3 | 14.5 | 0.00 | 0.00 | 0.00 | 74 | 1014.2 |
| 20260901094104 | 25 | 158 | 8.0 | 14.5 | 0.00 | 0.00 | 0.00 | 74 | 1014.2 |
| 20260901093600 | 25 | 225 | 6.4 | 14.5 | 0.00 | 0.00 | 0.00 | 75 | 1014.2 |
| 20260901093054 | 25 | 293 | 9.7 | 14.5 | 0.00 | 0.00 | 0.00 | 75 | 1014.2 |
| 20260901092549 | 25 | 248 | 8.0 | 14.5 | 0.00 | 0.00 | 0.00 | 75 | 1014.2 |
| 20260901092045 | 24 | 180 | 4.8 | 14.5 | 0.00 | 0.00 | 0.00 | 75 | 1014.2 |
| 20260901091539 | 25 | 225 | 9.7 | 14.5 | 0.00 | 0.00 | 0.00 | 75 | 1014.2 |
| 20260901091035 | 25 | 270 | 6.4 | 14.5 | 0.00 | 0.00 | 0.00 | 75 | 1014.2 |
| 20260901090530 | 25 | 180 | 9.7 | 14.5 | 0.00 | 0.00 | 0.00 | 76 | 1014.2 |
| 20260901090024 | 25 | 248 | 8.0 | 14.5 | 0.00 | 0.00 | 0.00 | 76 | 1014.2 |
| 20260901085519 | 24 | 23 | 3.2 | 14.5 | 0.00 | 0.00 | 0.00 | 76 | 1013.9 |
| 20260901085015 | 25 | 225 | 6.4 | 12.9 | 0.00 | 0.00 | 0.00 | 76 | 1013.9 |
| 20260901084510 | 25 | 23 | 9.7 | 12.9 | 0.00 | 0.00 | 0.00 | 76 | 1013.9 |
| 20260901084005 | 25 | 23 | 8.0 | 14.5 | 0.00 | 0.00 | 0.00 | 77 | 1013.9 |
| 20260901083459 | 25 | 90 | 3.2 | 14.5 | 0.00 | 0.00 | 0.00 | 76 | 1013.9 |
| 20260901082954 | 25 | 203 | 11.3 | 14.5 | 0.00 | 0.00 | 0.00 | 76 | 1013.9 |
| 20260901082449 | 25 | 225 | 3.2 | 14.5 | 0.00 | 0.00 | 0.00 | 76 | 1013.9 |
| 20260901081944 | 25 | 225 | 6.4 | 14.5 | 0.00 | 0.00 | 0.00 | 76 | 1013.5 |
| 20260901081439 | 25 | 270 | 3.2 | 14.5 | 0.00 | 0.00 | 0.00 | 76 | 1013.5 |
| 20260901080934 | 25 | 293 | 9.7 | 14.5 | 0.00 | 0.00 | 0.00 | 75 | 1013.5 |
| 20260901080429 | 25 | 315 | 6.4 | 14.5 | 0.00 | 0.00 | 0.00 | 76 | 1013.5 |
| 20260901075924 | 25 | 225 | 4.8 | 14.5 | 0.00 | 0.00 | 0.00 | 75 | 1013.5 |
| 20260901075419 | 25 | 203 | 8.0 | 14.5 | 0.00 | 0.00 | 0.00 | 75 | 1013.5 |
| 20260901074915 | 25 | 203 | 8.0 | 14.5 | 0.00 | 0.00 | 0.00 | 75 | 1013.5 |
| 20260901074410 | 25 | 203 | 8.0 | 14.5 | 0.00 | 0.00 | 0.00 | 74 | 1013.5 |
| 20260901073910 | 25 | 225 | 8.0 | 11.3 | 0.00 | 0.00 | 0.00 | 75 | 1013.5 |
| 20260901073410 | 25 | 180 | 6.4 | 11.3 | 0.00 | 0.00 | 0.00 | 75 | 1013.5 |
| 20260901072905 | 25 | 248 | 3.2 | 11.3 | 0.00 | 0.00 | 0.00 | 75 | 1013.5 |
| 20260901072405 | 25 | 225 | 8.0 | 11.3 | 0.00 | 0.00 | 0.00 | 75 | 1013.5 |
| 20260901071859 | 25 | 248 | 3.2 | 11.3 | 0.00 | 0.00 | 0.00 | 75 | 1013.5 |
| 20260901071354 | 25 | 248 | 3.2 | 11.3 | 0.00 | 0.00 | 0.00 | 76 | 1013.5 |
| 20260901070850 | 25 | 180 | 11.3 | 11.3 | 0.00 | 0.00 | 0.00 | 75 | 1013.5 |
| 20260901070345 | 25 | 180 | 8.0 | 11.3 | 0.00 | 0.00 | 0.00 | 75 | 1013.5 |
| 20260901065845 | 25 | 225 | 8.0 | 11.3 | 0.00 | 0.00 | 0.00 | 76 | 1013.9 |
| 20260901065339 | 25 | 248 | 6.4 | 11.3 | 0.00 | 0.00 | 0.00 | 76 | 1013.9 |
| 20260901064838 | 25 | 225 | 6.4 | 9.7 | 0.00 | 0.00 | 0.00 | 76 | 1013.9 |
| 20260901064335 | 25 | 203 | 8.0 | 9.7 | 0.00 | 0.00 | 0.00 | 76 | 1013.9 |
| 20260901063830 | 25 | 158 | 6.4 | 9.7 | 0.00 | 0.00 | 0.00 | 77 | 1013.9 |
| 20260901063324 | 25 | 225 | 6.4 | 9.7 | 0.00 | 0.00 | 0.00 | 77 | 1013.9 |
| 20260901062821 | 25 | 203 | 3.2 | 9.7 | 0.00 | 0.00 | 0.00 | 77 | 1013.9 |
| 20260901062315 | 25 | 248 | 3.2 | 9.7 | 0.00 | 0.00 | 0.00 | 77 | 1013.9 |
| 20260901061809 | 25 | 203 | 3.2 | 9.7 | 0.00 | 0.00 | 0.00 | 77 | 1013.9 |
| 20260901061304 | 25 | 180 | 3.2 | 9.7 | 0.00 | 0.00 | 0.00 | 77 | 1013.9 |
| 20260901060759 | 25 | 203 | 3.2 | 9.7 | 0.00 | 0.00 | 0.00 | 77 | 1013.9 |
| 20260901060255 | 25 | 180 | 6.4 | 9.7 | 0.00 | 0.00 | 0.00 | 77 | 1013.9 |
| 20260901055749 | 25 | 180 | 8.0 | 8.0 | 0.00 | 0.00 | 0.00 | 77 | 1013.9 |
| 20260901055244 | 25 | 180 | 3.2 | 8.0 | 0.00 | 0.00 | 0.00 | 77 | 1013.9 |
| 20260901054739 | 25 | 180 | 3.2 | 8.0 | 0.00 | 0.00 | 0.00 | 77 | 1014.2 |
| 20260901054234 | 25 | 180 | 6.4 | 8.0 | 0.00 | 0.00 | 0.00 | 76 | 1014.2 |
| 20260901053729 | 25 | 180 | 3.2 | 8.0 | 0.00 | 0.00 | 0.00 | 77 | 1014.2 |
| 20260901053224 | 25 | 135 | 3.2 | 8.0 | 0.00 | 0.00 | 0.00 | 77 | 1014.2 |
| 20260901052719 | 25 | 180 | 3.2 | 8.0 | 0.00 | 0.00 | 0.00 | 77 | 1014.2 |
| 20260901052214 | 25 | 158 | 3.2 | 8.0 | 0.00 | 0.00 | 0.00 | 75 | 1013.9 |
| 20260901051709 | 25 | 158 | 3.2 | 8.0 | 0.00 | 0.00 | 0.00 | 76 | 1013.9 |
| 20260901051204 | 25 | 158 | 3.2 | 8.0 | 0.00 | 0.00 | 0.00 | 77 | 1013.9 |
| 20260901050659 | 25 | 158 | 3.2 | 8.0 | 0.00 | 0.00 | 0.00 | 77 | 1013.9 |
| 20260901050155 | 25 | 113 | 3.2 | 8.0 | 0.00 | 0.00 | 0.00 | 76 | 1013.9 |
| 20260901045650 | 25 | 180 | 3.2 | 8.0 | 0.00 | 0.00 | 0.00 | 77 | 1013.9 |
| 20260901045144 | 25 | 180 | 3.2 | 8.0 | 0.00 | 0.00 | 0.00 | 77 | 1013.9 |
| 20260901044639 | 25 | 158 | 3.2 | 8.0 | 0.00 | 0.00 | 0.00 | 77 | 1013.9 |
| 20260901044134 | 25 | 180 | 4.8 | 8.0 | 0.00 | 0.00 | 0.00 | 76 | 1013.9 |
| 20260901043629 | 25 | 180 | 6.4 | 8.0 | 0.00 | 0.00 | 0.00 | 77 | 1013.9 |
| 20260901043124 | 25 | 158 | 3.2 | 8.0 | 0.00 | 0.00 | 0.00 | 78 | 1013.9 |
| 20260901042620 | 25 | 158 | 3.2 | 8.0 | 0.00 | 0.00 | 0.00 | 78 | 1013.9 |
| 20260901042114 | 24 | 180 | 3.2 | 6.4 | 0.00 | 0.00 | 0.00 | 79 | 1013.9 |
| 20260901041609 | 24 | 158 | 3.2 | 6.4 | 0.00 | 0.00 | 0.00 | 80 | 1013.9 |
| 20260901041104 | 24 | 158 | 3.2 | 6.4 | 0.00 | 0.00 | 0.00 | 80 | 1013.9 |
| 20260901040559 | 25 | 158 | 0.0 | 6.4 | 0.00 | 0.00 | 0.00 | 80 | 1013.9 |
| 20260901040054 | 25 | 180 | 0.0 | 11.3 | 0.00 | 0.00 | 0.00 | 79 | 1013.9 |
| 20260901035549 | 25 | 158 | 3.2 | 11.3 | 0.00 | 0.00 | 0.05 | 79 | 1013.9 |
| 20260901035044 | 25 | 113 | 0.0 | 11.3 | 0.00 | 0.00 | 0.05 | 77 | 1013.9 |
| 20260901034539 | 25 | 113 | 3.2 | 11.3 | 0.00 | 0.00 | 0.05 | 76 | 1013.9 |
| 20260901034034 | 25 | 113 | 3.2 | 12.9 | 0.00 | 0.00 | 0.05 | 76 | 1013.9 |
| 20260901033529 | 26 | 113 | 0.0 | 19.3 | 0.00 | 0.00 | 0.05 | 76 | 1013.9 |
| 20260901033025 | 26 | 203 | 1.6 | 19.3 | 0.00 | 0.00 | 0.05 | 75 | 1013.9 |
| 20260901032519 | 26 | 203 | 3.2 | 19.3 | 0.00 | 0.00 | 0.05 | 73 | 1013.9 |
| 20260901032014 | 26 | 248 | 3.2 | 19.3 | 0.00 | 0.00 | 0.05 | 73 | 1013.9 |
| 20260901031510 | 26 | 203 | 3.2 | 19.3 | 0.00 | 0.00 | 0.05 | 72 | 1013.9 |
| 20260901031005 | 26 | 225 | 3.2 | 19.3 | 0.00 | 0.00 | 0.05 | 72 | 1013.9 |
| 20260901030459 | 27 | 293 | 3.2 | 19.3 | 0.00 | 0.00 | 0.05 | 72 | 1013.9 |
| 20260901025955 | 27 | 270 | 8.0 | 19.3 | 0.00 | 0.00 | 0.05 | 71 | 1013.9 |
| 20260901025450 | 27 | 270 | 6.4 | 19.3 | 0.00 | 0.00 | 0.05 | 72 | 1013.5 |
| 20260901024944 | 27 | 180 | 3.2 | 19.3 | 0.00 | 0.00 | 0.05 | 72 | 1013.5 |
| 20260901024440 | 27 | 113 | 8.0 | 19.3 | 0.00 | 0.00 | 0.05 | 72 | 1012.9 |
| 20260901023935 | 27 | 23 | 6.4 | 19.3 | 0.00 | 0.00 | 0.05 | 72 | 1012.9 |
| 20260901023429 | 27 | 158 | 8.0 | 19.3 | 0.00 | 0.00 | 0.05 | 73 | 1013.2 |
| 20260901022925 | 27 | 158 | 19.3 | 19.3 | 0.00 | 0.00 | 0.05 | 72 | 1013.2 |
| 20260901022420 | 27 | 180 | 8.0 | 17.7 | 0.00 | 0.00 | 0.05 | 73 | 1013.2 |
| 20260901021915 | 27 | 180 | 9.7 | 17.7 | 0.00 | 0.00 | 0.05 | 72 | 1013.5 |
| 20260901021409 | 27 | 180 | 6.4 | 17.7 | 0.00 | 0.00 | 0.05 | 73 | 1013.5 |
| 20260901020904 | 27 | 180 | 9.7 | 17.7 | 0.00 | 0.00 | 0.05 | 71 | 1013.9 |
| 20260901020400 | 27 | 203 | 3.2 | 17.7 | 0.00 | 0.00 | 0.05 | 72 | 1013.9 |
| 20260901015855 | 27 | 203 | 8.0 | 17.7 | 0.00 | 0.00 | 0.05 | 71 | 1014.2 |
| 20260901015349 | 27 | 180 | 9.7 | 17.7 | 0.00 | 0.00 | 0.05 | 71 | 1014.2 |
| 20260901014848 | 27 | 203 | 9.7 | 17.7 | 0.00 | 0.00 | 0.05 | 71 | 1014.2 |
| 20260901014345 | 27 | 180 | 8.0 | 17.7 | 0.00 | 0.00 | 0.05 | 71 | 1014.2 |
| 20260901013839 | 27 | 180 | 4.8 | 17.7 | 0.00 | 0.00 | 0.05 | 72 | 1014.2 |
| 20260901013335 | 27 | 338 | 6.4 | 17.7 | 0.00 | 0.00 | 0.05 | 72 | 1013.9 |
| 20260901012835 | 28 | 203 | 11.3 | 17.7 | 0.00 | 0.00 | 0.05 | 69 | 1013.9 |
| 20260901012330 | 28 | 203 | 11.3 | 17.7 | 0.00 | 0.00 | 0.05 | 68 | 1013.9 |
| 20260901011825 | 28 | 135 | 12.9 | 17.7 | 0.00 | 0.00 | 0.05 | 69 | 1013.9 |
| 20260901011320 | 28 | 158 | 11.3 | 17.7 | 0.00 | 0.00 | 0.05 | 70 | 1013.9 |
| 20260901010815 | 28 | 180 | 12.9 | 17.7 | 0.00 | 0.00 | 0.05 | 70 | 1013.5 |
| 20260901010309 | 28 | 180 | 11.3 | 17.7 | 0.00 | 0.00 | 0.05 | 71 | 1013.5 |
| 20260901005805 | 28 | 225 | 6.4 | 14.5 | 0.00 | 0.00 | 0.05 | 71 | 1013.2 |
| 20260901005300 | 28 | 158 | 14.5 | 14.5 | 0.00 | 0.00 | 0.05 | 70 | 1013.2 |
| 20260901004755 | 28 | 180 | 14.5 | 14.5 | 0.00 | 0.00 | 0.05 | 69 | 1013.5 |
| 20260901004250 | 28 | 203 | 6.4 | 14.5 | 0.00 | 0.00 | 0.05 | 70 | 1013.5 |
| 20260901003744 | 28 | 225 | 11.3 | 14.5 | 0.00 | 0.00 | 0.05 | 70 | 1013.5 |
| 20260901003240 | 28 | 158 | 8.0 | 14.5 | 0.00 | 0.00 | 0.05 | 70 | 1013.5 |
| 20260901002735 | 28 | 180 | 3.2 | 14.5 | 0.00 | 0.00 | 0.05 | 70 | 1013.5 |
| 20260901002230 | 28 | 158 | 8.0 | 12.9 | 0.00 | 0.00 | 0.05 | 70 | 1013.5 |
| 20260901001725 | 28 | 158 | 11.3 | 12.9 | 0.00 | 0.00 | 0.05 | 70 | 1013.5 |
| 20260901001220 | 28 | 180 | 8.0 | 12.9 | 0.00 | 0.00 | 0.05 | 70 | 1013.5 |
| 20260901000715 | 28 | 158 | 11.3 | 11.3 | 0.00 | 0.00 | 0.05 | 70 | 1014.2 |
| 20260901000211 | 28 | 203 | 4.8 | 11.3 | 0.00 | 0.00 | 0.05 | 70 | 1014.2 |
| 20260831235705 | 28 | 180 | 3.2 | 11.3 | 0.00 | 0.00 | 0.05 | 70 | 1013.9 |
| 20260831235200 | 28 | 180 | 8.0 | 11.3 | 0.00 | 0.00 | 0.05 | 69 | 1013.9 |
| 20260831234655 | 28 | 158 | 3.2 | 11.3 | 0.00 | 0.00 | 0.05 | 69 | 1013.9 |
| 20260831234150 | 29 | 203 | 9.7 | 11.3 | 0.00 | 0.00 | 0.05 | 69 | 1013.9 |
| 20260831233645 | 29 | 180 | 9.7 | 11.3 | 0.00 | 0.00 | 0.05 | 69 | 1013.9 |
| 20260831233140 | 29 | 158 | 6.4 | 11.3 | 0.00 | 0.00 | 0.05 | 68 | 1013.9 |
| 20260831232635 | 29 | 180 | 6.4 | 12.9 | 0.00 | 0.00 | 0.05 | 68 | 1013.9 |
| 20260831232129 | 30 | 180 | 8.0 | 12.9 | 0.00 | 0.00 | 0.05 | 67 | 1013.9 |
| 20260831231625 | 30 | 180 | 6.4 | 12.9 | 0.00 | 0.00 | 0.05 | 67 | 1013.9 |
| 20260831231120 | 30 | 180 | 6.4 | 12.9 | 0.00 | 0.00 | 0.05 | 68 | 1014.2 |
| 20260831230615 | 30 | 225 | 4.8 | 12.9 | 0.00 | 0.00 | 0.05 | 67 | 1014.2 |
| 20260831230110 | 30 | 270 | 3.2 | 12.9 | 0.00 | 0.00 | 0.05 | 66 | 1014.2 |
| 20260831225604 | 30 | 248 | 3.2 | 14.5 | 0.00 | 0.00 | 0.05 | 66 | 1014.2 |
| 20260831225100 | 30 | 293 | 3.2 | 14.5 | 0.00 | 0.00 | 0.05 | 66 | 1014.2 |
| 20260831224554 | 30 | 180 | 6.4 | 14.5 | 0.00 | 0.00 | 0.05 | 65 | 1014.2 |
| 20260831224050 | 30 | 180 | 4.8 | 14.5 | 0.00 | 0.00 | 0.05 | 66 | 1014.2 |
| 20260831223544 | 30 | 180 | 8.0 | 16.1 | 0.00 | 0.00 | 0.05 | 67 | 1013.9 |
| 20260831223041 | 30 | 158 | 6.4 | 16.1 | 0.00 | 0.00 | 0.05 | 68 | 1013.9 |
| 20260831222534 | 30 | 113 | 6.4 | 17.7 | 0.00 | 0.00 | 0.05 | 66 | 1013.9 |
| 20260831222030 | 30 | 180 | 6.4 | 17.7 | 0.00 | 0.00 | 0.05 | 67 | 1013.5 |
| 20260831221527 | 31 | 180 | 8.0 | 19.3 | 0.00 | 0.00 | 0.05 | 67 | 1013.5 |
| 20260831221019 | 30 | 180 | 9.7 | 19.3 | 0.00 | 0.00 | 0.05 | 67 | 1013.5 |
| 20260831220515 | 30 | 113 | 8.0 | 19.3 | 0.00 | 0.00 | 0.05 | 66 | 1013.5 |
| 20260831220009 | 30 | 203 | 8.0 | 19.3 | 0.00 | 0.00 | 0.05 | 65 | 1013.5 |
| 20260831215505 | 31 | 135 | 11.3 | 22.5 | 0.00 | 0.00 | 0.05 | 65 | 1013.5 |
| 20260831214959 | 31 | 203 | 8.0 | 22.5 | 0.00 | 0.00 | 0.05 | 63 | 1013.5 |
| 20260831214454 | 32 | 158 | 6.4 | 22.5 | 0.00 | 0.00 | 0.05 | 62 | 1013.5 |
| 20260831213949 | 32 | 158 | 4.8 | 22.5 | 0.00 | 0.00 | 0.05 | 62 | 1013.5 |
| 20260831213444 | 32 | 180 | 9.7 | 22.5 | 0.00 | 0.00 | 0.05 | 60 | 1013.9 |
| 20260831212940 | 32 | 180 | 11.3 | 22.5 | 0.00 | 0.00 | 0.05 | 61 | 1013.9 |
| 20260831212435 | 31 | 180 | 16.1 | 22.5 | 0.00 | 0.00 | 0.05 | 62 | 1013.9 |
| 20260831211929 | 32 | 180 | 17.7 | 22.5 | 0.00 | 0.00 | 0.05 | 61 | 1013.9 |
| 20260831211425 | 32 | 90 | 8.0 | 22.5 | 0.00 | 0.00 | 0.05 | 61 | 1013.9 |
| 20260831210919 | 32 | 180 | 9.7 | 22.5 | 0.00 | 0.00 | 0.05 | 60 | 1013.9 |
| 20260831210415 | 32 | 180 | 17.7 | 22.5 | 0.00 | 0.00 | 0.05 | 58 | 1013.9 |
| 20260831205910 | 32 | 180 | 14.5 | 22.5 | 0.00 | 0.00 | 0.05 | 60 | 1013.5 |
| 20260831205408 | 32 | 180 | 8.0 | 22.5 | 0.00 | 0.00 | 0.05 | 61 | 1013.5 |
| 20260831204908 | 32 | 180 | 11.3 | 17.7 | 0.00 | 0.00 | 0.05 | 62 | 1013.5 |
| 20260831204405 | 32 | 180 | 11.3 | 17.7 | 0.00 | 0.00 | 0.05 | 62 | 1013.5 |
| 20260831203904 | 32 | 203 | 11.3 | 17.7 | 0.00 | 0.00 | 0.05 | 61 | 1013.5 |
| 20260831203359 | 32 | 203 | 8.0 | 17.7 | 0.00 | 0.00 | 0.05 | 62 | 1013.9 |
| 20260831202854 | 32 | 180 | 11.3 | 17.7 | 0.00 | 0.00 | 0.05 | 61 | 1013.9 |
| 20260831202349 | 32 | 203 | 6.4 | 17.7 | 0.00 | 0.00 | 0.05 | 62 | 1013.9 |
| 20260831201848 | 32 | 270 | 14.5 | 17.7 | 0.00 | 0.00 | 0.05 | 61 | 1013.9 |
| 20260831201344 | 32 | 180 | 6.4 | 17.7 | 0.00 | 0.00 | 0.05 | 63 | 1013.9 |
| 20260831200839 | 31 | 180 | 11.3 | 17.7 | 0.00 | 0.00 | 0.05 | 65 | 1013.9 |
| 20260831200335 | 31 | 180 | 17.7 | 17.7 | 0.00 | 0.00 | 0.05 | 66 | 1013.9 |
| 20260831195829 | 31 | 180 | 8.0 | 17.7 | 0.00 | 0.00 | 0.05 | 66 | 1014.2 |
| 20260831195327 | 31 | 180 | 8.0 | 17.7 | 0.00 | 0.00 | 0.05 | 66 | 1014.2 |
| 20260831194825 | 31 | 180 | 9.7 | 17.7 | 0.00 | 0.00 | 0.05 | 66 | 1014.2 |
| 20260831194319 | 31 | 180 | 17.7 | 17.7 | 0.00 | 0.00 | 0.05 | 66 | 1014.2 |
| 20260831193815 | 30 | 158 | 9.7 | 14.5 | 0.00 | 0.00 | 0.05 | 67 | 1014.2 |
| 20260831193309 | 31 | 180 | 12.9 | 14.5 | 0.00 | 0.00 | 0.05 | 65 | 1014.6 |
| 20260831192809 | 31 | 158 | 6.4 | 14.5 | 0.00 | 0.00 | 0.05 | 68 | 1014.6 |
| 20260831192306 | 30 | 180 | 8.0 | 14.5 | 0.00 | 0.00 | 0.05 | 69 | 1014.9 |
| 20260831191805 | 28 | 180 | 6.4 | 11.3 | 0.00 | 0.00 | 0.05 | 72 | 1014.9 |
| 20260831191305 | 29 | 158 | 9.7 | 17.7 | 0.00 | 0.00 | 0.05 | 70 | 1014.9 |
| 20260831190759 | 29 | 135 | 6.4 | 17.7 | 0.00 | 0.00 | 0.05 | 73 | 1014.9 |
| 20260831190254 | 28 | 203 | 8.0 | 17.7 | 0.00 | 0.00 | 0.05 | 72 | 1014.9 |
| 20260831185750 | 27 | 180 | 8.0 | 17.7 | 0.00 | 0.00 | 0.05 | 75 | 1015.2 |
| 20260831185245 | 27 | 113 | 8.0 | 17.7 | 0.00 | 0.00 | 0.05 | 74 | 1015.2 |
| 20260831184740 | 27 | 135 | 8.0 | 17.7 | 0.00 | 0.00 | 0.05 | 77 | 1015.2 |
| 20260831184235 | 26 | 180 | 8.0 | 17.7 | 0.00 | 0.00 | 0.05 | 79 | 1015.2 |
| 20260831183729 | 26 | 203 | 6.4 | 17.7 | 0.00 | 0.00 | 0.05 | 79 | 1015.2 |
| 20260831183224 | 25 | 180 | 8.0 | 17.7 | 0.00 | 0.00 | 0.05 | 80 | 1015.6 |
| 20260831182720 | 25 | 158 | 6.4 | 17.7 | 0.00 | 0.00 | 0.05 | 81 | 1015.6 |
| 20260831182219 | 25 | 180 | 8.0 | 17.7 | 0.00 | 0.00 | 0.05 | 82 | 1015.6 |
| 20260831181709 | 26 | 180 | 8.0 | 17.7 | 0.00 | 0.00 | 0.05 | 76 | 1015.6 |
| 20260831181205 | 26 | 180 | 6.4 | 17.7 | 0.00 | 0.00 | 0.05 | 75 | 1015.6 |
| 20260831180705 | 26 | 135 | 8.0 | 12.9 | 0.00 | 0.00 | 0.05 | 74 | 1015.6 |
| 20260831180200 | 26 | 180 | 8.0 | 12.9 | 0.00 | 0.00 | 0.05 | 76 | 1015.6 |
| 20260831175654 | 26 | 203 | 8.0 | 12.9 | 0.00 | 0.00 | 0.05 | 77 | 1015.9 |
| 20260831175149 | 25 | 158 | 8.0 | 11.3 | 0.00 | 0.00 | 0.05 | 79 | 1015.9 |
| 20260831174645 | 25 | 158 | 8.0 | 11.3 | 0.00 | 0.00 | 0.05 | 80 | 1016.3 |
| 20260831174140 | 25 | 113 | 4.8 | 11.3 | 0.00 | 0.00 | 0.05 | 80 | 1016.3 |
| 20260831173635 | 25 | 180 | 3.2 | 11.3 | 0.00 | 0.00 | 0.05 | 81 | 1016.3 |
| 20260831173135 | 25 | 90 | 8.0 | 11.3 | 0.00 | 0.00 | 0.05 | 82 | 1016.6 |
| 20260831172635 | 24 | 203 | 8.0 | 9.7 | 0.00 | 0.00 | 0.05 | 83 | 1016.6 |
| 20260831172129 | 24 | 248 | 6.4 | 9.7 | 0.03 | 0.00 | 0.05 | 83 | 1016.3 |
| 20260831171624 | 24 | 203 | 3.2 | 9.7 | 0.03 | 0.00 | 0.05 | 84 | 1016.3 |
| 20260831171119 | 24 | 158 | 6.4 | 9.7 | 0.03 | 0.00 | 0.05 | 85 | 1016.3 |
| 20260831170615 | 23 | 293 | 3.2 | 9.7 | 0.03 | 0.00 | 0.05 | 85 | 1016.3 |
| 20260831170109 | 24 | 158 | 6.4 | 9.7 | 0.03 | 0.00 | 0.05 | 85 | 1016.3 |
| 20260831165605 | 24 | 180 | 3.2 | 9.7 | 0.03 | 0.00 | 0.05 | 86 | 1016.3 |
| 20260831165059 | 23 | 203 | 4.8 | 9.7 | 0.03 | 0.00 | 0.05 | 87 | 1016.3 |
| 20260831164555 | 23 | 158 | 6.4 | 9.7 | 0.03 | 0.00 | 0.05 | 87 | 1016.3 |
| 20260831164050 | 23 | 180 | 4.8 | 9.7 | 0.03 | 0.00 | 0.05 | 88 | 1016.3 |
| 20260831163545 | 23 | 135 | 8.0 | 9.7 | 0.03 | 0.00 | 0.05 | 90 | 1016.6 |
| 20260831163039 | 22 | 158 | 6.4 | 8.0 | 0.03 | 0.00 | 0.05 | 90 | 1016.6 |
| 20260831162535 | 22 | 180 | 6.4 | 8.0 | 0.03 | 0.00 | 0.05 | 89 | 1016.6 |
| 20260831162029 | 22 | 158 | 3.2 | 8.0 | 0.00 | 0.00 | 0.03 | 90 | 1016.9 |
| 20260831161524 | 22 | 113 | 3.2 | 8.0 | 0.00 | 0.00 | 0.03 | 88 | 1016.9 |
| 20260831161019 | 22 | 135 | 0.0 | 8.0 | 0.00 | 0.00 | 0.03 | 88 | 1017.3 |
| 20260831160514 | 22 | 113 | 6.4 | 8.0 | 0.00 | 0.00 | 0.03 | 87 | 1017.3 |
| 20260831160009 | 23 | 158 | 3.2 | 6.4 | 0.00 | 0.00 | 0.03 | 85 | 1017.3 |
| 20260831155504 | 23 | 180 | 3.2 | 8.0 | 0.00 | 0.00 | 0.03 | 86 | 1017.3 |
| 20260831154959 | 23 | 158 | 6.4 | 8.0 | 0.00 | 0.00 | 0.03 | 87 | 1017.3 |
| 20260831154454 | 23 | 180 | 4.8 | 8.0 | 0.00 | 0.00 | 0.03 | 87 | 1017.3 |
| 20260831153949 | 22 | 113 | 3.2 | 11.3 | 0.00 | 0.00 | 0.03 | 85 | 1017.3 |
| 20260831153444 | 22 | 113 | 3.2 | 11.3 | 0.00 | 0.00 | 0.03 | 85 | 1017.3 |
| 20260831152939 | 23 | 113 | 3.2 | 11.3 | 0.00 | 0.00 | 0.03 | 84 | 1017.3 |
| 20260831152434 | 23 | 113 | 3.2 | 11.3 | 0.00 | 0.00 | 0.03 | 83 | 1017.3 |
| 20260831151929 | 23 | 270 | 0.0 | 11.3 | 0.00 | 0.00 | 0.03 | 83 | 1017.3 |
| 20260831151424 | 23 | 270 | 3.2 | 11.3 | 0.00 | 0.00 | 0.03 | 83 | 1017.3 |
| 20260831150919 | 23 | 180 | 1.6 | 11.3 | 0.00 | 0.00 | 0.03 | 80 | 1016.6 |
| 20260831150414 | 23 | 225 | 1.6 | 11.3 | 0.00 | 0.00 | 0.03 | 79 | 1016.6 |
| 20260831145909 | 23 | 113 | 4.8 | 11.3 | 0.00 | 0.00 | 0.03 | 80 | 1016.3 |
| 20260831145404 | 23 | 135 | 3.2 | 12.9 | 0.00 | 0.00 | 0.03 | 79 | 1016.3 |
| 20260831144859 | 23 | 158 | 8.0 | 12.9 | 0.00 | 0.00 | 0.03 | 79 | 1016.3 |
| 20260831144354 | 23 | 180 | 3.2 | 12.9 | 0.00 | 0.00 | 0.03 | 80 | 1016.6 |
| 20260831143850 | 23 | 203 | 3.2 | 12.9 | 0.00 | 0.00 | 0.03 | 79 | 1016.6 |
| 20260831143346 | 23 | 293 | 6.4 | 12.9 | 0.00 | 0.00 | 0.03 | 80 | 1016.3 |
| 20260831142845 | 23 | 180 | 6.4 | 12.9 | 0.00 | 0.00 | 0.03 | 79 | 1016.3 |
| 20260831142339 | 23 | 203 | 6.4 | 12.9 | 0.00 | 0.00 | 0.03 | 79 | 1016.3 |
| 20260831141838 | 23 | 158 | 6.4 | 12.9 | 0.00 | 0.00 | 0.03 | 80 | 1016.3 |
| 20260831141335 | 23 | 180 | 8.0 | 12.9 | 0.00 | 0.00 | 0.03 | 79 | 1016.3 |
| 20260831140829 | 23 | 180 | 3.2 | 12.9 | 0.00 | 0.00 | 0.03 | 79 | 1016.3 |
| 20260831140324 | 23 | 180 | 6.4 | 12.9 | 0.00 | 0.00 | 0.03 | 79 | 1016.3 |
| 20260831135819 | 23 | 158 | 6.4 | 12.9 | 0.00 | 0.00 | 0.03 | 79 | 1016.3 |
| 20260831135314 | 23 | 180 | 8.0 | 9.7 | 0.00 | 0.00 | 0.03 | 79 | 1016.3 |
| 20260831134810 | 23 | 180 | 4.8 | 9.7 | 0.00 | 0.00 | 0.03 | 78 | 1016.6 |
| 20260831134309 | 23 | 203 | 3.2 | 9.7 | 0.00 | 0.00 | 0.03 | 79 | 1016.6 |
| 20260831133805 | 23 | 180 | 6.4 | 9.7 | 0.00 | 0.00 | 0.03 | 79 | 1016.6 |
| 20260831133305 | 23 | 180 | 6.4 | 9.7 | 0.00 | 0.00 | 0.03 | 80 | 1016.3 |
| 20260831132804 | 23 | 180 | 3.2 | 9.7 | 0.00 | 0.00 | 0.03 | 79 | 1016.3 |
| 20260831132300 | 23 | 158 | 6.4 | 11.3 | 0.00 | 0.00 | 0.03 | 79 | 1016.3 |
| 20260831131755 | 23 | 135 | 6.4 | 11.3 | 0.00 | 0.00 | 0.03 | 79 | 1016.3 |
| 20260831131250 | 23 | 180 | 8.0 | 11.3 | 0.00 | 0.00 | 0.03 | 79 | 1016.3 |
| 20260831130746 | 23 | 158 | 8.0 | 11.3 | 0.00 | 0.00 | 0.03 | 80 | 1016.3 |
| 20260831130239 | 23 | 180 | 3.2 | 11.3 | 0.00 | 0.00 | 0.03 | 81 | 1016.3 |
| 20260831125735 | 23 | 180 | 6.4 | 11.3 | 0.00 | 0.00 | 0.03 | 81 | 1016.3 |
| 20260831125230 | 23 | 180 | 6.4 | 11.3 | 0.00 | 0.00 | 0.03 | 82 | 1016.3 |
| 20260831124724 | 23 | 180 | 6.4 | 11.3 | 0.00 | 0.00 | 0.03 | 82 | 1015.9 |
| 20260831124219 | 22 | 158 | 3.2 | 11.3 | 0.00 | 0.00 | 0.03 | 82 | 1015.9 |
| 20260831123715 | 22 | 180 | 4.8 | 11.3 | 0.00 | 0.00 | 0.03 | 83 | 1015.9 |
| 20260831123210 | 22 | 180 | 9.7 | 11.3 | 0.00 | 0.00 | 0.03 | 84 | 1015.9 |
| 20260831122704 | 22 | 135 | 8.0 | 11.3 | 0.00 | 0.00 | 0.03 | 85 | 1015.9 |
| 20260831122159 | 22 | 180 | 6.4 | 11.3 | 0.00 | 0.00 | 0.03 | 84 | 1015.9 |
| 20260831121655 | 22 | 180 | 8.0 | 9.7 | 0.00 | 0.00 | 0.03 | 85 | 1015.9 |
| 20260831121149 | 22 | 158 | 6.4 | 9.7 | 0.00 | 0.00 | 0.03 | 84 | 1015.9 |
| 20260831120644 | 22 | 158 | 3.2 | 8.0 | 0.00 | 0.00 | 0.03 | 86 | 1015.6 |
| 20260831120139 | 22 | 180 | 6.4 | 8.0 | 0.00 | 0.00 | 0.03 | 86 | 1015.6 |
| 20260831115634 | 22 | 158 | 6.4 | 8.0 | 0.00 | 0.00 | 0.03 | 87 | 1015.6 |
| 20260831115129 | 22 | 180 | 6.4 | 8.0 | 0.00 | 0.00 | 0.03 | 87 | 1015.6 |
| 20260831114624 | 22 | 135 | 6.4 | 8.0 | 0.00 | 0.00 | 0.03 | 88 | 1015.2 |
| 20260831114119 | 21 | 203 | 3.2 | 8.0 | 0.00 | 0.00 | 0.03 | 88 | 1015.2 |
| 20260831113615 | 21 | 158 | 6.4 | 8.0 | 0.00 | 0.00 | 0.03 | 88 | 1015.2 |
| 20260831113109 | 21 | 158 | 4.8 | 8.0 | 0.00 | 0.00 | 0.03 | 89 | 1015.2 |
| 20260831112604 | 21 | 158 | 3.2 | 8.0 | 0.00 | 0.00 | 0.03 | 89 | 1015.2 |
| 20260831112059 | 21 | 135 | 6.4 | 8.0 | 0.00 | 0.00 | 0.03 | 89 | 1015.2 |
| 20260831111554 | 21 | 135 | 6.4 | 8.0 | 0.00 | 0.00 | 0.03 | 89 | 1015.2 |
| 20260831111049 | 21 | 135 | 6.4 | 8.0 | 0.00 | 0.00 | 0.03 | 89 | 1015.2 |
| 20260831110544 | 21 | 158 | 6.4 | 8.0 | 0.00 | 0.00 | 0.03 | 89 | 1015.2 |
| 20260831110039 | 21 | 158 | 6.4 | 9.7 | 0.00 | 0.00 | 0.03 | 89 | 1015.2 |
| 20260831105534 | 21 | 158 | 6.4 | 9.7 | 0.00 | 0.00 | 0.03 | 90 | 1015.2 |
| 20260831105029 | 21 | 158 | 6.4 | 9.7 | 0.00 | 0.00 | 0.03 | 90 | 1015.2 |
| 20260831104524 | 21 | 113 | 4.8 | 9.7 | 0.00 | 0.00 | 0.03 | 90 | 1015.2 |